User: anonymous   Login
Location: Valdosta
(30.8330°N, 83.2790°W)
Time: 07:57:37
(UTC-04:00)
Language:

Uribyol 2 - Orbit

View from above orbital plane
View from above orbital plane
View from above satellite
View from above satellite

Ground track
Ground track

The orbit data is extracted from the following two-line orbital elements,

1 22828U 93061F   17085.90410869 -.00000017 +00000-0 +10775-4 0  9992
2 22828 098.7877 049.4139 0010057 164.7934 195.3552 14.30626554193949
Epoch (UTC): 26 March 2017 21:41:54
Eccentricity: 0.0010057
inclination: 98.7877°
perigee height: 782 km
apogee height: 797 km
right ascension of ascending node: 49.4139°
argument of perigee: 164.7934°
revolutions per day: 14.30626554
mean anomaly at epoch: 195.3552°
orbit number at epoch: 19394

The dashed part of the orbit path shows where the satellite is in the earth's shadow,  

DLR